loading
|

THOR ABLESTAR DEB, 559

Orbit data source: Space-Track

THOR ABLESTAR DEB, 559 is space debris in LEO originally from a launch on Thu, 29 Jun 1961 UTC launched from the Air Force Eastern Test Range (AFETR). Debris objects in space refer to the collection of defunct objects orbiting the Earth. Examples of debris include non-operational satellites, rocket bodies, and fragments generated from explosions, collisions, or faulty payload assembly.

Loading next visibility...
Loading greatness...
THOR ABLESTAR DEB details
Identifier
559, 1961-015GR
Orbit
LEO
Last TLE update1 day ago
Origin
Flag of USUSAF SSD (US)
ManufacturerUnknown
Mission statusUnknown
MissionUnknown
Bus & MotorUnknown
MassUnknown
Launch date (UTC)
1961-06-29 (63 years ago)
Launch vehicleUnknown
Launch site
Air Force Eastern Test Range (AFETR)
Object type
Payload
Rocket body
Debris
Radar Cross SectionSmall (<0.1 m²)

Expand to show TLE details & history

TLE from 1 day ago
0 THOR ABLESTAR DEB
1 00559U 61015GR  24250.57213229  .00020783  00000-0  44600-2 0  9992
2 00559  66.6041 298.7926 0067614 277.2154  82.1274 14.57202500254651
Epoch: 2024-09-06T13:43Z
Definitive object data (Epoch: 2024-09-06T13:43:52.229Z)
Latitude-0.00004°
Longitude106.68222°
Altitude698.107 km
Speed7.511 km/s
True Right ascension19h 55m 10s
True Declination0° 00' 00"
Sunlit
Object was in full shadow at TLE epoch
Predictive object data (real-time)
Latitude-49.5209°
Longitude-46.36286°
Altitude683.947 km
Speed7.533 km/s
Apparent Right ascension03h 36m 11s
Apparent Declination-80° 30' 55"
Sunlit
Object is in daylight
Predictive observer data (real-time)
Local Sidereal Time10:57:54
Azimuth192.112° SSW
Elevation-42.611°
Doppler factor1
Orbital elements
Apogee748.449 km
Perigee652.725 km
Semi-major axis7,078.724 km
Eccentricity0.0067614
Inclination66.6041°
RAAN298.7926°
Arg. of periapsis277.2154°
True anomaly82.89576°
Mean anomaly82.1274°
Eccentric anomaly82.5115°
Mean motion3.64427 °/min
BSTAR0.00446
Period98.79 mins
No data available

THOR ABLESTAR DEB Visibility forecast

Observer location: 39.9160978°, -105.1181434

THOR ABLESTAR DEB is not visible in the next 10 days
Span
Click to sort rows by Start time (UTC) header in descending order
Start Az.
Max El. time (UTC)
Max El. Az.
Max El.
End time (UTC)
End Az.